Regional Weather Roundup
Issued by NWS

Home | Current Version | Previous Version | Text Only | Print | Product List | Glossary Off
Versions: 1 2 3 4 5 6 7 8 9 10 11 12 13 14 15 16 17 18 19 20 21 22 23 24 25 26 27 28 29 30 31 32 33 34 35 36 37 38 39 40 41 42 43 44 45 46 47 48 49 50

000
ASUS43 KLMK 212202
RWRKY
KENTUCKY REGIONAL WEATHER ROUNDUP
NATIONAL WEATHER SERVICE LOUISVILLE KY
600 PM EDT THU AUG 21 2014

NOTE "FAIR" INDICATES FEW OR NO CLOUDS BELOW 12,000 FEET
WITH NO SIGNIFICANT WEATHER AND/OR OBSTRUCTIONS TO VISIBILITY.

KYZ001>023-026-027-061>063-070>075-212300-
WESTERN AND SOUTH CENTRAL KENTUCKY

CITY           SKY/WX    TMP DP  RH WIND       PRES   REMARKS
PADUCAH        MOSUNNY   91  74  57 SW10      30.00S HX 100
HENDERSON      MOSUNNY   91  72  52 W6        29.98S HX  98
OWENSBORO      SUNNY     92  75  57 S9        30.00S HX 102
HOPKINSVILLE   NOT AVBL
BOWLING GREEN  SUNNY     92  69  47 SW6       30.03F HX  97
GLASGOW        MOSUNNY   90  72  54 SW5       30.04F HX  97
$$

KYZ024-025-028>034-038-045-046-053-212300-
NORTH CENTRAL KENTUCKY

CITY           SKY/WX    TMP DP  RH WIND       PRES   REMARKS
LOUISVILLE/SDF PTSUNNY   89  73  59 SW9       30.01F HX  97
LOUISVILLE/LOU MOSUNNY   88  72  58 S7        30.01F HX  94
FORT KNOX      SUNNY     90  72  55 W8        30.02F HX  97
$$

KYZ035>037-039>044-047>052-055>060-089>105-212300-
NORTHEAST KENTUCKY

CITY           SKY/WX    TMP DP  RH WIND       PRES   REMARKS
LEXINGTON      MOSUNNY   87  74  64 W7        30.06S HX  95
COVINGTON      PTSUNNY   83  73  72 S8        30.02F
FRANKFORT      MOSUNNY   86  73  65 SW12      30.03F HX  93
$$

KYZ054-064>069-076>088-106>120-212300-
SOUTHEAST KENTUCKY

CITY           SKY/WX    TMP DP  RH WIND       PRES   REMARKS
JACKSON        FOG       71  69  93 VRB3      30.12F VSB 1/4
LONDON         PTSUNNY   88  69  53 W9        30.11R HX  92
SOMERSET       MOSUNNY   86  70  58 SW8       30.09F HX  90
MIDDLESBORO    MOSUNNY   89  72  55 W6        30.11R HX  96
MONTICELLO     CLEAR     89  75  63 SW6       30.10F HX  98
$$




USA.gov is the U.S. government's official web portal to all federal, state and local government web resources and services.